[[{"header":{"parameterUnit":"m.s-1","parameterCategory":1,"la1":30.2991,"la2":30.254,"lo1":-89.0895,"lo2":-89.0444,"dy":0.0017,"dx":0.0017,"nx":28,"ny":28,"refTime":"2025-01-22T03:00:00:Z","depth":0,"parameterNumber":2,"parameterNumberName":"U-component_of_WINDS"},"data":[0,0,0,0,0,0,0,0,0,0,0,0,0,0,0,0,0,0,0,0,0,0,0,0,0,0,0,0,0,0,0,0,0,0,0,0,0,0,0,0,0,0,0,0,0,0,0,0,0,0,0,0,0,0,0,0,0,0,-1.9662,-1.9663,0,-1.9682,-1.9682,-1.9682,-1.9635,-1.9634,-1.9632,-1.9631,-1.9654,-1.9656,-1.9658,0,0,0,0,0,0,0,0,0,0,0,0,0,-1.9589,-1.9591,-1.9662,-1.9663,-1.9663,-1.9681,-1.9682,-1.9682,-1.9636,-1.9634,-1.9632,-1.963,-1.9654,-1.9656,-1.9659,0,0,0,0,0,0,0,0,0,0,0,0,0,-1.9616,-1.9591,-1.9662,-1.9642,-1.964,-1.9681,-1.9682,-1.9682,-1.9636,-1.9634,-1.9631,-1.9629,-1.9653,-1.9656,-1.9659,-1.9722,0,0,-1.9668,-1.9669,0,0,0,0,0,0,0,0,-1.9615,-1.9619,-1.9645,-1.9643,-1.9641,-1.9654,-1.9665,-1.9696,-1.9636,-1.9638,-1.9631,-1.9628,-1.9656,-1.9659,-1.9667,-1.9723,-1.9724,-1.9668,-1.967,-1.9672,-1.9672,0,0,0,0,0,0,0,-1.9613,-1.9618,-1.967,-1.9645,-1.9643,-1.9633,-1.9634,-1.967,-1.9659,-1.9637,-1.9634,-1.9637,-1.9655,-1.9665,-1.9668,-1.9725,-1.9668,-1.9671,-1.9673,-1.9674,-1.9835,-1.9838,0,0,0,0,0,0,-1.9613,-1.9617,-1.9669,-1.9671,-1.9622,-1.9636,-1.9637,-1.9652,-1.9659,-1.9658,-1.9639,-1.9634,-1.9661,-1.9664,-1.9668,-1.9744,-1.9672,-1.9674,-1.9676,-1.9833,-1.9836,-1.9838,0,0,0,0,0,0,-1.9612,-1.9618,-1.9669,-1.9643,-1.9648,-1.964,-1.9656,-1.9654,-1.9663,-1.966,-1.9658,-1.965,-1.9659,-1.9664,-1.9709,-1.9745,-1.9676,-1.9679,-1.983,-1.9834,-1.9837,-1.9896,0,0,0,0,0,0,-1.961,-1.9618,-1.9641,-1.9643,-1.965,-1.9708,-1.9658,-1.9656,-1.9668,-1.9663,-1.967,-1.9669,-1.9658,-1.9705,-1.9712,-1.9748,-1.9681,-1.9827,-1.9832,-1.9836,-1.9891,-1.9902,-1.991,0,0,0,0,0,-1.9607,-1.9658,-1.9643,-1.9649,-1.9678,-1.971,-1.9714,-1.9699,-1.9671,-1.9695,-1.9693,-1.9669,-1.9739,-1.971,-1.9718,-1.9755,-1.9824,-1.983,-1.9836,-1.9887,-1.99,-1.991,0,0,0,0,0,0,-1.9661,-1.9658,-1.9641,-1.9693,-1.9702,-1.9702,-1.9732,-1.9712,-1.9731,-1.9725,-1.9706,-1.9708,-1.9758,-1.976,-1.9728,-1.9817,-1.9777,-1.9785,-1.9814,-1.9826,-1.9835,-1.9835,-1.9683,0,0,0,0,0,-1.9679,-1.9704,-1.97,-1.9746,-1.9752,-1.9741,-1.9755,-1.9742,-1.9751,-1.9755,-1.9756,-1.9767,-1.9792,-1.9808,-1.9831,-1.9891,-1.9893,-1.992,-1.9929,-1.9937,-1.9945,-1.9978,-1.9991,-1.9857,-1.9857,-1.9856,0,0,-1.9716,-1.9717,-1.9735,-1.9757,-1.9763,-1.9791,-1.9745,-1.9776,-1.9797,-1.976,-1.9803,-1.9804,-1.9815,-1.9869,-1.9892,-1.9872,-1.9982,-1.9944,-1.9951,-1.9954,-1.9985,-1.9998,-2.0009,-1.986,-1.986,-1.9859,0,0,-1.9799,-1.9801,-1.9841,-1.9847,-1.9856,-1.9849,-1.9858,-1.9861,-1.986,-1.9903,-1.9876,-1.9901,-1.9943,-1.9953,-1.9963,-2.0049,-2.0029,-2.0057,-2.0108,-2.0141,-2.0152,-2.0161,-2.0194,-2.0206,-2.0064,-2.0064,-2.0064,0,-1.9845,-1.9885,-1.9864,-1.9898,-1.9909,-1.9875,-1.9917,-1.9924,-1.994,-1.995,-1.9926,-1.9979,-1.9984,-2.004,-2.0061,-2.007,-2.0082,-2.0057,-2.0152,-2.0161,-2.0169,-2.02,-2.0213,-2.0067,-2.0067,-2.0067,-2.0066,0,-1.9942,-1.997,-2.0001,-2.0016,-2.0031,-2.0068,-2.0055,-2.0073,-2.0058,-2.0054,-2.0098,-2.0102,-2.0126,-2.0138,-2.0124,-2.0192,-2.018,-2.0154,-2.0115,-2.0186,-2.0215,-2.0227,-2.0072,-2.0071,-2.007,-2.0069,0,0,-2.0061,-2.0064,-2.0076,-2.0083,-2.0089,-2.0112,-2.0147,-2.0169,-2.0185,-2.0197,-2.0228,-2.0265,-2.0241,-2.0253,-2.024,-2.0269,-2.0339,-2.024,-2.024,-2.0261,-2.0417,-2.0438,-2.0452,-2.0325,-2.0327,-2.0329,-2.0417,0,-2.0144,-2.0205,-2.0188,-2.0249,-2.0276,-2.0244,-2.0275,-2.0284,-2.028,-2.0304,-2.03,-2.0327,-2.0293,-2.03,-2.0327,-2.0325,-2.0371,-2.0318,-2.0356,-2.0358,-2.0357,-2.0467,-2.0489,-2.0572,-2.0428,-2.043,-2.0431,0,-2.025,-2.0265,-2.0329,-2.0332,-2.0343,-2.0371,-2.039,-2.0412,-2.0421,-2.0417,-2.043,-2.0411,-2.0448,-2.0406,-2.0458,-2.0423,-2.0437,-2.0439,-2.0442,-2.0447,-2.0401,-2.0477,-2.0598,-2.0611,-2.0448,-2.0447,-2.0446,0,-2.0333,-2.037,-2.0413,-2.042,-2.0424,-2.0445,-2.0448,-2.0454,-2.0469,-2.0485,-2.0495,-2.0516,-2.0528,-2.0545,-2.0534,-2.0504,-2.0588,-2.0545,-2.0588,-2.0588,-2.0609,-2.0609,-2.0736,-2.0614,-2.0614,-2.0614,-2.0614,0,-2.043,-2.0471,-2.045,-2.0478,-2.0523,-2.0503,-2.0549,-2.0548,-2.0554,-2.0582,-2.0555,-2.0582,-2.0563,-2.0589,-2.058,-2.0625,-2.063,-2.0629,-2.0627,-2.0633,-2.0634,-2.0644,-2.0639,-2.0617,-2.0616,-2.0616,-2.0615,0,-2.0532,-2.0519,-2.0565,-2.0564,-2.0565,-2.0599,-2.0599,-2.0625,-2.0619,-2.0654,-2.0661,-2.0653,-2.0681,-2.067,-2.0701,-2.0695,-2.0754,-2.0743,-2.0751,-2.0749,-2.0794,-2.0791,-2.0935,-2.0954,-2.0817,-2.0818,-2.0819,0,-2.0595,-2.0626,-2.0629,-2.0644,-2.0649,-2.0675,-2.0689,-2.067,-2.0686,-2.0699,-2.0724,-2.075,-2.077,-2.0817,-2.0815,-2.0839,-2.083,-2.0878,-2.0833,-2.0839,-2.0833,-2.0833,-2.0837,-2.0888,-2.089,-2.0891,-2.0892,0,-2.0711,-2.0703,-2.0723,-2.0743,-2.076,-2.0774,-2.0786,-2.0801,-2.0783,-2.0803,-2.0831,-2.0847,-2.0878,-2.0905,-2.0926,-2.093,-2.091,-2.0906,-2.0918,-2.0926,-2.093,-2.0931,-2.0779,-2.0903,-2.0902,-2.0901,-2.0901,-2.09,-2.0797,-2.0823,-2.0829,-2.0854,-2.086,-2.0872,-2.0897,-2.0894,-2.0916,-2.0939,-2.0927,-2.0961,-2.097,-2.0996,-2.1003,-2.103,-2.1012,-2.1028,-2.1032,-2.1037,-2.1044,-2.0923,-2.1034,-2.1033,-2.1033,-2.1033,-2.1032,0,-2.0913,-2.0915,-2.0937,-2.0955,-2.0974,-2.095,-2.0962,-2.0981,-2.1011,-2.102,-2.104,-2.1073,-2.1099,-2.1098,-2.1123,-2.1145,-2.1136,-2.1152,-2.1152,-2.1153,-2.1058,-2.1047,-2.1159,-2.1159,-2.1159,-2.1159,-2.1159,-2.1159,-2.0976,-2.102,-2.1013,-2.106,-2.1062,-2.1094,-2.1103,-2.1114,-2.1122,-2.116,-2.1181,-2.1179,-2.1185,-2.121,-2.1233,-2.1232,-2.1244,-2.1264,-2.126,-2.1172,-2.116,-2.1148,-2.1137,-2.1266,-2.1266,-2.1353,-2.1354,-2.1355]},{"header":{"parameterUnit":"m.s-1","parameterCategory":1,"la1":30.2991,"la2":30.254,"lo1":-89.0895,"lo2":-89.0444,"dy":0.0017,"dx":0.0017,"nx":28,"ny":28,"refTime":"2025-01-22T03:00:00:Z","depth":0,"parameterNumber":3,"parameterNumberName":"V-component_of_WINDS"},"data":[0,0,0,0,0,0,0,0,0,0,0,0,0,0,0,0,0,0,0,0,0,0,0,0,0,0,0,0,0,0,0,0,0,0,0,0,0,0,0,0,0,0,0,0,0,0,0,0,0,0,0,0,0,0,0,0,0,0,-1.892,-1.8921,0,-1.8958,-1.8959,-1.8959,-1.894,-1.8939,-1.8938,-1.8937,-1.8974,-1.8976,-1.8977,0,0,0,0,0,0,0,0,0,0,0,0,0,-1.8829,-1.8831,-1.892,-1.8921,-1.8921,-1.8958,-1.8959,-1.8959,-1.894,-1.8939,-1.8938,-1.8937,-1.8973,-1.8975,-1.8978,0,0,0,0,0,0,0,0,0,0,0,0,0,-1.8868,-1.8831,-1.892,-1.8916,-1.8916,-1.8958,-1.8959,-1.8959,-1.8941,-1.8939,-1.8938,-1.8936,-1.8972,-1.8975,-1.8978,-1.9025,0,0,-1.8987,-1.8988,0,0,0,0,0,0,0,0,-1.8866,-1.8871,-1.8917,-1.8917,-1.8917,-1.8943,-1.894,-1.8981,-1.8941,-1.8931,-1.8937,-1.8936,-1.8965,-1.8968,-1.8978,-1.9027,-1.9028,-1.8987,-1.8989,-1.899,-1.8991,0,0,0,0,0,0,0,-1.8863,-1.8869,-1.8935,-1.8917,-1.8917,-1.8912,-1.8916,-1.8948,-1.8956,-1.8932,-1.8931,-1.8936,-1.8964,-1.8976,-1.8979,-1.9029,-1.8987,-1.8989,-1.8991,-1.8992,-1.9117,-1.9119,0,0,0,0,0,0,-1.8861,-1.8867,-1.8934,-1.8936,-1.8887,-1.8915,-1.8919,-1.8936,-1.8955,-1.8957,-1.8937,-1.8935,-1.8971,-1.8976,-1.898,-1.9037,-1.899,-1.8992,-1.8994,-1.9116,-1.9118,-1.9119,0,0,0,0,0,0,-1.8859,-1.8867,-1.8933,-1.8902,-1.891,-1.8918,-1.8937,-1.8938,-1.8949,-1.8959,-1.896,-1.8947,-1.897,-1.8976,-1.9014,-1.9038,-1.8994,-1.8996,-1.9114,-1.9116,-1.9118,-1.915,0,0,0,0,0,0,-1.8856,-1.8866,-1.8885,-1.8902,-1.8911,-1.8967,-1.8939,-1.8939,-1.8954,-1.8951,-1.8969,-1.897,-1.897,-1.901,-1.9017,-1.9041,-1.8998,-1.9112,-1.9115,-1.9118,-1.9147,-1.9153,-1.9159,0,0,0,0,0,-1.8853,-1.8892,-1.8886,-1.8894,-1.8935,-1.8968,-1.8973,-1.8973,-1.8956,-1.8974,-1.8981,-1.897,-1.9034,-1.9014,-1.9022,-1.9047,-1.911,-1.9114,-1.9117,-1.9144,-1.9152,-1.9159,0,0,0,0,0,0,-1.8876,-1.8894,-1.8888,-1.8933,-1.895,-1.8965,-1.8988,-1.8981,-1.9001,-1.8998,-1.8995,-1.8999,-1.9039,-1.9046,-1.9024,-1.9093,-1.9069,-1.9075,-1.9087,-1.9095,-1.91,-1.9098,-1.9001,0,0,0,0,0,-1.8887,-1.8914,-1.8927,-1.8966,-1.8974,-1.898,-1.8994,-1.8992,-1.9009,-1.9015,-1.9024,-1.904,-1.9064,-1.9079,-1.9101,-1.9148,-1.9151,-1.9169,-1.9174,-1.9179,-1.9184,-1.9209,-1.9217,-1.9131,-1.9131,-1.9131,0,0,-1.8909,-1.8922,-1.8938,-1.8971,-1.8983,-1.901,-1.8986,-1.9015,-1.9035,-1.9019,-1.9056,-1.9063,-1.908,-1.9123,-1.9142,-1.913,-1.9209,-1.9184,-1.9188,-1.919,-1.9214,-1.9222,-1.9229,-1.9134,-1.9133,-1.9133,0,0,-1.8963,-1.8975,-1.9009,-1.9022,-1.9041,-1.9045,-1.9053,-1.9069,-1.9074,-1.9111,-1.91,-1.9122,-1.9163,-1.9176,-1.9188,-1.9246,-1.9237,-1.9253,-1.9284,-1.9309,-1.9316,-1.9322,-1.9343,-1.9351,-1.9258,-1.9258,-1.9258,0,-1.8987,-1.9028,-1.9027,-1.9058,-1.9072,-1.906,-1.9094,-1.9106,-1.9131,-1.9141,-1.9128,-1.9179,-1.9189,-1.9235,-1.9249,-1.9259,-1.9268,-1.9252,-1.9315,-1.9321,-1.9327,-1.9347,-1.9355,-1.926,-1.926,-1.926,-1.9259,0,-1.9058,-1.9086,-1.9111,-1.9137,-1.9154,-1.9186,-1.9189,-1.9206,-1.9203,-1.9207,-1.9245,-1.9257,-1.9282,-1.9292,-1.9288,-1.9337,-1.9329,-1.9315,-1.9292,-1.9337,-1.9356,-1.9364,-1.9263,-1.9262,-1.9261,-1.9261,0,0,-1.9128,-1.9153,-1.9162,-1.9174,-1.9194,-1.9216,-1.9247,-1.9272,-1.9287,-1.9304,-1.933,-1.9365,-1.9352,-1.9366,-1.9363,-1.9384,-1.9431,-1.9368,-1.9368,-1.938,-1.9485,-1.9496,-1.9506,-1.9424,-1.9425,-1.9426,-1.9484,0,-1.9184,-1.924,-1.924,-1.9291,-1.9318,-1.9306,-1.9333,-1.9348,-1.9353,-1.9375,-1.938,-1.9405,-1.9386,-1.9394,-1.9415,-1.9421,-1.9452,-1.9416,-1.9448,-1.9449,-1.9446,-1.9515,-1.9527,-1.9581,-1.9492,-1.9493,-1.9494,0,-1.9257,-1.9279,-1.9333,-1.935,-1.9361,-1.9385,-1.9408,-1.9429,-1.9446,-1.9447,-1.9463,-1.9457,-1.9487,-1.9462,-1.9504,-1.948,-1.9493,-1.9498,-1.95,-1.9503,-1.9475,-1.9522,-1.9598,-1.9607,-1.9505,-1.9504,-1.9504,0,-1.9305,-1.9346,-1.9384,-1.9394,-1.9415,-1.9432,-1.9441,-1.9456,-1.9471,-1.949,-1.95,-1.9522,-1.9535,-1.9552,-1.9552,-1.9533,-1.9595,-1.9569,-1.9598,-1.9598,-1.9612,-1.9611,-1.9693,-1.9618,-1.9618,-1.9618,-1.9618,0,-1.9368,-1.9402,-1.9406,-1.943,-1.9467,-1.9466,-1.9502,-1.9509,-1.9523,-1.9547,-1.9537,-1.956,-1.9558,-1.958,-1.958,-1.9616,-1.9621,-1.9623,-1.9623,-1.9625,-1.9625,-1.9634,-1.9631,-1.962,-1.962,-1.9619,-1.9619,0,-1.9427,-1.9431,-1.9473,-1.9488,-1.9493,-1.952,-1.9533,-1.9555,-1.9559,-1.9589,-1.9596,-1.9602,-1.9628,-1.9629,-1.9659,-1.9659,-1.9702,-1.9697,-1.9698,-1.9697,-1.9726,-1.9723,-1.9816,-1.9829,-1.9746,-1.9746,-1.9747,0,-1.9468,-1.9494,-1.9513,-1.9529,-1.954,-1.9565,-1.9581,-1.958,-1.9596,-1.9617,-1.9636,-1.9661,-1.9682,-1.9724,-1.973,-1.9753,-1.9749,-1.978,-1.9752,-1.9754,-1.9751,-1.975,-1.9752,-1.9786,-1.9787,-1.9787,-1.9788,0,-1.954,-1.9541,-1.9565,-1.9589,-1.9608,-1.9627,-1.9644,-1.9658,-1.9659,-1.9677,-1.9705,-1.972,-1.9751,-1.9777,-1.9799,-1.9807,-1.9798,-1.9797,-1.9805,-1.9807,-1.9807,-1.9808,-1.9714,-1.9795,-1.9794,-1.9794,-1.9793,-1.9793,-1.9592,-1.9615,-1.9632,-1.9659,-1.9672,-1.9689,-1.971,-1.9717,-1.974,-1.9766,-1.9763,-1.9793,-1.9808,-1.9837,-1.9847,-1.987,-1.9859,-1.9871,-1.9874,-1.9877,-1.988,-1.9802,-1.9874,-1.9874,-1.9873,-1.9873,-1.9873,0,-1.9665,-1.9675,-1.97,-1.9725,-1.9746,-1.9736,-1.9755,-1.9772,-1.9799,-1.9815,-1.9835,-1.9866,-1.9891,-1.9899,-1.9922,-1.9939,-1.9936,-1.9945,-1.9945,-1.9947,-1.9888,-1.988,-1.9948,-1.9948,-1.9948,-1.9948,-1.9948,-1.9948,-1.9705,-1.9744,-1.9747,-1.9791,-1.9801,-1.9831,-1.9843,-1.9858,-1.987,-1.9906,-1.9926,-1.9932,-1.9944,-1.9968,-1.999,-1.9992,-2.0001,-2.0013,-2.0013,-1.9958,-1.9951,-1.9944,-1.9936,-2.0015,-2.0015,-2.007,-2.007,-2.0071]}]]